Flag for Germany Weather past 2 weeks in Waiblingen, Baden-Württemberg, Germany

Now
66 °F

Clear.


Feels Like: 66 °F
Forecast: 68 / 91 °F
Wind: 2 mph from North

Location: Stuttgart-Echterdingen

Current Time: Jul 2, 2015 at 4:01:28 AM

Latest Report: Jul 2, 2015 at 3:20 AM


Visibility: 10 mi

Pressure: 30.15 "Hg

Humidity: 83%

Dew point: 61 °F

Location of WaiblingenLocation

Historic Weather in Waiblingen — Graph

°F

Waiblingen temperature yesterday

Maximum temperature yesterday: 88 °F (at 3:20 PM)
Minimum temperature yesterday: 59 °F (at 4:50 AM)
Average temperature yesterday: 75 °F

Past Weeks' High & Low Weather Summary

 TemperatureHumidityPressure
High88 °F (Jul 1, 3:20 PM)100% (Jun 18, 3:50 PM)30.24 "Hg (Jun 18, 3:50 PM)
Low46 °F (Jun 24, 4:50 AM)29% (Jul 1, 1:50 PM)29.74 "Hg (Jun 22, 8:50 PM)
Average62 °F72%30.11 "Hg
* Reported Jun 17 2:20 AM — Jul 2 2:50 AM, Waiblingen, Weather by CustomWeather, © 2015

Note: Actual official high and low records may vary slightly from our data, if they occured in-between our weather recording intervals... More about our weather records

Advertising

Waiblingen weather history for previous 24 hours

 ConditionsComfort  
Time TempWeatherWind HumidityBarometerVisibility
2:50 AM
Thu, Jul 2
66 °FClear.1 mph83%30.15 "Hg10 mi
2:20 AM68 °FClear.2 mph78%30.15 "Hg10 mi
1:50 AM68 °FClear.1 mph78%30.15 "Hg10 mi
1:20 AM68 °FClear.1 mph78%30.12 "Hg10 mi
12:50 AM70 °FClear.2 mph73%30.15 "Hg10 mi
11:50 PM
Wed, Jul 1
72 °FClear.2 mph69%30.12 "Hg10 mi
11:20 PM73 °FClear.1 mph65%30.12 "Hg10 mi
10:50 PM73 °FClear.2 mph65%30.12 "Hg10 mi
10:20 PM75 °FSunny.2 mph65%30.12 "Hg10 mi
9:50 PM75 °FSunny.5 mph65%30.12 "Hg10 mi
9:20 PM79 °FSunny.3 mph58%30.09 "Hg10 mi
8:50 PM81 °FSunny.5 mph58%30.09 "Hg10 mi
8:20 PM82 °FSunny.8 mph55%30.09 "Hg10 mi
7:50 PM84 °FSunny.7 mph48%30.09 "Hg10 mi
7:20 PM84 °FSunny.9 mph45%30.09 "Hg10 mi
6:50 PM86 °FPassing clouds.10 mph46%30.09 "HgN/A
6:20 PM86 °FSunny.10 mph43%30.09 "Hg10 mi
5:50 PM88 °FPassing clouds.9 mph38%30.09 "HgN/A
5:20 PM88 °FSunny.8 mph35%30.09 "Hg10 mi
4:50 PM88 °FPassing clouds.7 mph31%30.09 "HgN/A
4:20 PM88 °FPassing clouds.7 mph31%30.09 "HgN/A
3:50 PM88 °FPassing clouds.6 mph29%30.09 "HgN/A
3:20 PM88 °FSunny.5 mph31%30.09 "Hg10 mi
2:50 PM86 °FPassing clouds.7 mph31%30.09 "HgN/A
2:20 PM86 °FPassing clouds.6 mph31%30.12 "HgN/A
1:50 PM86 °FPassing clouds.6 mph29%30.12 "HgN/A
1:20 PM86 °FSunny.6 mph35%30.12 "Hg10 mi
12:50 PM84 °FPassing clouds.6 mph43%30.12 "HgN/A
12:20 PM84 °FPassing clouds.7 mph43%30.12 "HgN/A
11:50 AM82 °FPassing clouds.7 mph45%30.12 "HgN/A
11:20 AM81 °FSunny.5 mph48%30.12 "Hg10 mi
10:50 AM79 °FSunny.2 mph54%30.15 "Hg10 mi
10:20 AM77 °FSunny.2 mph51%30.12 "Hg10 mi
9:50 AM75 °FSunny.2 mph54%30.12 "Hg10 mi
9:20 AM73 °FSunny.2 mph53%30.12 "Hg10 mi
8:50 AM72 °FSunny.2 mph61%30.12 "Hg10 mi
8:20 AM68 °FSunny.3 mph73%30.12 "Hg10 mi
7:50 AM68 °FSunny.2 mph64%30.12 "Hg10 mi
7:20 AM64 °FSunny.2 mph83%30.12 "Hg10 mi
6:50 AM63 °FSunny.1 mph77%30.12 "Hg10 mi
6:20 AM61 °FClear.1 mph83%30.12 "Hg10 mi
5:50 AM59 °FClear.1 mph82%30.12 "Hg10 mi
5:20 AM59 °FClear.2 mph82%30.12 "Hg10 mi
4:50 AM59 °FClear.5 mph82%30.12 "Hg10 mi
4:20 AM61 °FPassing clouds.3 mph77%30.12 "HgN/A
Weather by CustomWeather, © 2015

See weather overviewHow to use our weather pages